| time (UTC) | temp F | wind direction | speed MPH | gust MPH | rain 1hr in | rain 24hr in | rain mn in | humidity % | barometer mb |
| 20260504193905 | 62 | 56 | 0.0 | 3.0 | 0.00 | 0.00 | 0.00 | 65 | 1013.9 |
| 20260504193352 | 62 | 269 | 1.0 | 4.0 | 0.00 | 0.00 | 0.00 | 65 | 1014.0 |
| 20260504192901 | 62 | 225 | 1.0 | 4.0 | 0.00 | 0.00 | 0.00 | 65 | 1014.0 |
| 20260504192349 | 62 | 287 | 1.0 | 2.0 | 0.00 | 0.00 | 0.00 | 63 | 1014.0 |
| 20260504191858 | 62 | 287 | 0.0 | 1.0 | 0.00 | 0.00 | 0.00 | 62 | 1013.8 |
| 20260504191349 | 62 | 117 | 0.0 | 0.0 | 0.00 | 0.00 | 0.00 | 61 | 1013.8 |
| 20260504190855 | 62 | 116 | 0.0 | 0.0 | 0.00 | 0.00 | 0.00 | 61 | 1013.9 |
| 20260504190401 | 63 | 333 | 0.0 | 0.0 | 0.00 | 0.00 | 0.00 | 61 | 1014.0 |
| 20260504185848 | 62 | 334 | 0.0 | 0.0 | 0.00 | 0.04 | 0.00 | 61 | 1013.9 |
| 20260504185359 | 62 | 333 | 0.0 | 1.0 | 0.00 | 0.04 | 0.00 | 60 | 1014.0 |
| 20260504184909 | 63 | 243 | 0.0 | 1.0 | 0.00 | 0.04 | 0.00 | 61 | 1014.1 |
| 20260504184359 | 63 | 233 | 0.0 | 2.0 | 0.00 | 0.04 | 0.00 | 61 | 1014.0 |
| 20260504183846 | 63 | 162 | 0.0 | 2.0 | 0.00 | 0.04 | 0.00 | 62 | 1014.0 |
| 20260504183416 | 63 | 259 | 0.0 | 1.0 | 0.00 | 0.04 | 0.00 | 62 | 1014.1 |
| 20260504182902 | 63 | 149 | 0.0 | 0.0 | 0.00 | 0.04 | 0.00 | 62 | 1014.1 |
| 20260504182352 | 63 | 148 | 0.0 | 4.0 | 0.00 | 0.04 | 0.00 | 62 | 1014.0 |
| 20260504181920 | 63 | 86 | 0.0 | 4.0 | 0.00 | 0.04 | 0.00 | 62 | 1014.1 |
| 20260504181353 | 63 | 212 | 0.0 | 2.0 | 0.00 | 0.04 | 0.00 | 64 | 1014.1 |
| 20260504180921 | 63 | 217 | 0.0 | 3.0 | 0.00 | 0.04 | 0.00 | 66 | 1014.1 |
| 20260504180346 | 62 | 160 | 1.0 | 3.0 | 0.00 | 0.04 | 0.00 | 66 | 1014.2 |
| 20260504175358 | 62 | 130 | 2.0 | 5.0 | 0.00 | 0.08 | 0.00 | 65 | 1014.1 |
| 20260504174904 | 63 | 151 | 2.0 | 3.0 | 0.00 | 0.08 | 0.00 | 62 | 1014.1 |
| 20260504174429 | 63 | 170 | 1.0 | 4.0 | 0.00 | 0.08 | 0.00 | 62 | 1013.9 |
| 20260504173852 | 63 | 125 | 1.0 | 4.0 | 0.00 | 0.08 | 0.00 | 64 | 1013.9 |
| 20260504173359 | 63 | 140 | 1.0 | 4.0 | 0.00 | 0.08 | 0.00 | 64 | 1014.0 |
| 20260504172346 | 62 | 150 | 1.0 | 4.0 | 0.00 | 0.08 | 0.00 | 68 | 1014.0 |
| 20260504171853 | 62 | 162 | 3.0 | 5.0 | 0.00 | 0.08 | 0.00 | 67 | 1013.9 |
| 20260504170900 | 63 | 156 | 1.0 | 4.0 | 0.00 | 0.08 | 0.00 | 68 | 1013.9 |
| 20260504170350 | 62 | 162 | 1.0 | 4.0 | 0.00 | 0.08 | 0.00 | 68 | 1013.9 |
| 20260504160346 | 60 | 158 | 0.0 | 3.0 | 0.00 | 0.09 | 0.00 | 79 | 1013.6 |
| 20260504150919 | 57 | 162 | 0.0 | 2.0 | 0.00 | 0.09 | 0.00 | 77 | 1013.3 |
| 20260504150346 | 57 | 148 | 0.0 | 4.0 | 0.00 | 0.09 | 0.00 | 78 | 1013.3 |
| 20260504140851 | 54 | 131 | 0.0 | 0.0 | 0.00 | 0.09 | 0.00 | 86 | 1013.1 |
| 20260504140400 | 54 | 131 | 0.0 | 0.0 | 0.00 | 0.09 | 0.00 | 86 | 1013.0 |
| 20260504130415 | 53 | 93 | 0.0 | 0.0 | 0.00 | 0.09 | 0.00 | 87 | 1013.4 |
| 20260504110408 | 51 | 247 | 0.0 | 0.0 | 0.00 | 0.09 | 0.00 | 90 | 1012.5 |
| 20260504100415 | 52 | 247 | 0.0 | 0.0 | 0.00 | 0.09 | 0.00 | 88 | 1012.5 |
| 20260504081846 | 56 | 247 | 0.0 | 0.0 | 0.00 | 0.09 | 0.00 | 80 | 1013.9 |
| 20260504081353 | 56 | 247 | 0.0 | 0.0 | 0.00 | 0.09 | 0.00 | 80 | 1013.6 |
| 20260504080900 | 56 | 247 | 0.0 | 0.0 | 0.00 | 0.09 | 0.00 | 80 | 1013.7 |
| 20260504080348 | 56 | 247 | 0.0 | 0.0 | 0.00 | 0.09 | 0.00 | 80 | 1013.6 |
| 20260504070348 | 56 | 240 | 0.0 | 0.0 | 0.00 | 0.09 | 0.00 | 79 | 1013.6 |
| 20260504050409 | 57 | 240 | 0.0 | 0.0 | 0.00 | 0.09 | 0.09 | 77 | 1013.1 |
| 20260504045917 | 57 | 240 | 0.0 | 0.0 | 0.00 | 0.09 | 0.09 | 77 | 1013.1 |
| 20260504045421 | 58 | 240 | 0.0 | 0.0 | 0.00 | 0.09 | 0.09 | 77 | 1013.0 |
| 20260504044847 | 58 | 240 | 0.0 | 0.0 | 0.00 | 0.09 | 0.09 | 77 | 1013.1 |
| 20260504044355 | 58 | 240 | 0.0 | 0.0 | 0.00 | 0.09 | 0.09 | 77 | 1013.0 |
| 20260504043902 | 58 | 240 | 0.0 | 1.0 | 0.00 | 0.09 | 0.09 | 77 | 1013.2 |
| 20260504043404 | 58 | 171 | 0.0 | 1.0 | 0.00 | 0.09 | 0.09 | 76 | 1013.1 |
| 20260504042849 | 58 | 245 | 0.0 | 1.0 | 0.00 | 0.09 | 0.09 | 76 | 1013.2 |
| 20260504042355 | 58 | 257 | 0.0 | 1.0 | 0.00 | 0.09 | 0.09 | 75 | 1013.3 |
| 20260504041918 | 58 | 232 | 0.0 | 0.0 | 0.00 | 0.09 | 0.09 | 74 | 1013.0 |
| 20260504041404 | 58 | 243 | 0.0 | 0.0 | 0.00 | 0.09 | 0.09 | 74 | 1012.9 |
| 20260504040847 | 58 | 243 | 0.0 | 0.0 | 0.00 | 0.09 | 0.09 | 74 | 1012.9 |
| 20260504040412 | 58 | 243 | 0.0 | 1.0 | 0.00 | 0.09 | 0.09 | 73 | 1012.8 |
| 20260504035857 | 58 | 243 | 0.0 | 1.0 | 0.00 | 0.09 | 0.09 | 73 | 1012.8 |
| 20260504035404 | 58 | 264 | 0.0 | 1.0 | 0.00 | 0.09 | 0.09 | 73 | 1012.6 |
| 20260504034853 | 58 | 264 | 0.0 | 1.0 | 0.00 | 0.09 | 0.09 | 73 | 1012.7 |
| 20260504034356 | 58 | 249 | 0.0 | 1.0 | 0.00 | 0.09 | 0.09 | 73 | 1012.7 |
| 20260504033904 | 58 | 273 | 0.0 | 1.0 | 0.00 | 0.09 | 0.09 | 73 | 1012.6 |
| 20260504033413 | 58 | 273 | 0.0 | 2.0 | 0.00 | 0.09 | 0.09 | 73 | 1012.4 |
| 20260504032902 | 59 | 258 | 0.0 | 2.0 | 0.00 | 0.09 | 0.09 | 74 | 1012.3 |
| 20260504032349 | 58 | 262 | 0.0 | 1.0 | 0.00 | 0.09 | 0.09 | 74 | 1012.2 |
| 20260504031858 | 59 | 276 | 0.0 | 1.0 | 0.00 | 0.09 | 0.09 | 74 | 1012.4 |
| 20260504031346 | 59 | 267 | 0.0 | 1.0 | 0.00 | 0.09 | 0.09 | 74 | 1012.3 |
| 20260504030856 | 59 | 260 | 0.0 | 1.0 | 0.00 | 0.09 | 0.09 | 74 | 1012.2 |
| 20260504030403 | 59 | 278 | 0.0 | 1.0 | 0.00 | 0.09 | 0.09 | 74 | 1012.2 |
| 20260504025850 | 59 | 263 | 0.0 | 1.0 | 0.00 | 0.09 | 0.09 | 74 | 1012.1 |
| 20260504025357 | 59 | 259 | 0.0 | 2.0 | 0.00 | 0.09 | 0.09 | 74 | 1012.3 |
| 20260504024849 | 59 | 282 | 0.0 | 2.0 | 0.00 | 0.09 | 0.09 | 74 | 1012.0 |
| 20260504024357 | 60 | 279 | 0.0 | 1.0 | 0.00 | 0.09 | 0.09 | 74 | 1011.9 |
| 20260504023847 | 60 | 268 | 0.0 | 2.0 | 0.00 | 0.09 | 0.09 | 74 | 1012.0 |
| 20260504023355 | 60 | 284 | 0.0 | 2.0 | 0.00 | 0.09 | 0.09 | 74 | 1011.9 |
| 20260504022902 | 60 | 264 | 0.0 | 2.0 | 0.00 | 0.09 | 0.09 | 74 | 1011.8 |
| 20260504022351 | 60 | 262 | 0.0 | 3.0 | 0.00 | 0.09 | 0.09 | 73 | 1011.7 |
| 20260504021857 | 61 | 251 | 1.0 | 3.0 | 0.00 | 0.09 | 0.09 | 72 | 1011.7 |
| 20260504021404 | 61 | 243 | 0.0 | 2.0 | 0.00 | 0.09 | 0.09 | 72 | 1011.6 |
| 20260504020849 | 61 | 272 | 0.0 | 2.0 | 0.00 | 0.09 | 0.09 | 72 | 1011.6 |
| 20260504020418 | 61 | 259 | 0.0 | 3.0 | 0.00 | 0.09 | 0.09 | 72 | 1011.4 |
| 20260504015847 | 61 | 260 | 1.0 | 3.0 | 0.00 | 0.09 | 0.09 | 72 | 1011.5 |
| 20260504015414 | 61 | 307 | 0.0 | 1.0 | 0.00 | 0.09 | 0.09 | 73 | 1011.3 |
| 20260504014901 | 61 | 283 | 0.0 | 1.0 | 0.00 | 0.09 | 0.09 | 72 | 1011.3 |
| 20260504014355 | 61 | 268 | 0.0 | 0.0 | 0.00 | 0.09 | 0.09 | 73 | 1011.2 |
| 20260504013901 | 61 | 269 | 0.0 | 2.0 | 0.00 | 0.09 | 0.09 | 72 | 1011.1 |
| 20260504013349 | 62 | 280 | 0.0 | 2.0 | 0.00 | 0.09 | 0.09 | 72 | 1011.3 |
| 20260504012917 | 62 | 278 | 0.0 | 2.0 | 0.00 | 0.09 | 0.09 | 72 | 1011.4 |
| 20260504012403 | 62 | 268 | 0.0 | 3.0 | 0.00 | 0.09 | 0.09 | 71 | 1011.3 |
| 20260504011853 | 62 | 272 | 1.0 | 3.0 | 0.00 | 0.09 | 0.09 | 71 | 1011.1 |
| 20260504011358 | 62 | 249 | 0.0 | 3.0 | 0.00 | 0.09 | 0.09 | 70 | 1011.2 |
| 20260504010905 | 62 | 259 | 1.0 | 3.0 | 0.00 | 0.09 | 0.09 | 69 | 1011.0 |
| 20260504010351 | 62 | 150 | 0.0 | 3.0 | 0.00 | 0.09 | 0.09 | 70 | 1011.2 |
| 20260504005900 | 62 | 259 | 1.0 | 3.0 | 0.00 | 0.09 | 0.09 | 70 | 1011.1 |
| 20260504005352 | 62 | 240 | 0.0 | 3.0 | 0.00 | 0.09 | 0.09 | 69 | 1011.1 |
| 20260504004901 | 63 | 253 | 1.0 | 3.0 | 0.00 | 0.09 | 0.09 | 70 | 1011.0 |
| 20260504004347 | 62 | 263 | 1.0 | 3.0 | 0.00 | 0.09 | 0.09 | 70 | 1011.0 |
| 20260504003852 | 63 | 281 | 0.0 | 1.0 | 0.00 | 0.09 | 0.09 | 70 | 1011.0 |
| 20260504003358 | 62 | 275 | 0.0 | 1.0 | 0.00 | 0.09 | 0.09 | 70 | 1011.0 |
| 20260504002903 | 63 | 263 | 0.0 | 3.0 | 0.00 | 0.09 | 0.09 | 69 | 1011.0 |
| 20260504002405 | 63 | 253 | 1.0 | 3.0 | 0.00 | 0.09 | 0.09 | 68 | 1010.9 |
| 20260504001854 | 63 | 248 | 0.0 | 2.0 | 0.00 | 0.09 | 0.09 | 69 | 1010.8 |
| 20260504001401 | 63 | 262 | 1.0 | 2.0 | 0.00 | 0.09 | 0.09 | 68 | 1010.9 |
| 20260504000848 | 63 | 276 | 0.0 | 3.0 | 0.00 | 0.09 | 0.09 | 69 | 1010.9 |
| 20260504000357 | 63 | 258 | 0.0 | 3.0 | 0.00 | 0.09 | 0.09 | 69 | 1011.0 |
| 20260503235925 | 63 | 278 | 0.0 | 3.0 | 0.00 | 0.09 | 0.09 | 69 | 1011.0 |
| 20260503235350 | 63 | 259 | 1.0 | 3.0 | 0.00 | 0.09 | 0.09 | 68 | 1011.0 |
| 20260503234857 | 64 | 207 | 1.0 | 3.0 | 0.00 | 0.09 | 0.09 | 69 | 1010.9 |
| 20260503234404 | 64 | 226 | 0.0 | 1.0 | 0.00 | 0.09 | 0.09 | 70 | 1010.8 |
| 20260503233850 | 63 | 333 | 0.0 | 3.0 | 0.00 | 0.09 | 0.09 | 71 | 1010.9 |
| 20260503233358 | 63 | 297 | 0.0 | 3.0 | 0.00 | 0.09 | 0.09 | 71 | 1011.0 |
| 20260503232927 | 63 | 338 | 0.0 | 1.0 | 0.00 | 0.09 | 0.09 | 71 | 1011.0 |
| 20260503232351 | 63 | 317 | 0.0 | 1.0 | 0.00 | 0.09 | 0.09 | 71 | 1011.0 |
| 20260503231900 | 63 | 298 | 0.0 | 2.0 | 0.00 | 0.09 | 0.09 | 72 | 1011.1 |
| 20260503231347 | 63 | 321 | 1.0 | 2.0 | 0.00 | 0.09 | 0.09 | 72 | 1011.2 |
| 20260503230855 | 63 | 332 | 0.0 | 2.0 | 0.00 | 0.09 | 0.09 | 73 | 1011.2 |
| 20260503230346 | 63 | 307 | 1.0 | 4.0 | 0.00 | 0.09 | 0.09 | 73 | 1011.2 |
| 20260503225855 | 62 | 296 | 0.0 | 4.0 | 0.00 | 0.09 | 0.09 | 74 | 1011.2 |
| 20260503225402 | 62 | 277 | 0.0 | 3.0 | 0.00 | 0.09 | 0.09 | 75 | 1011.3 |
| 20260503224849 | 62 | 349 | 0.0 | 3.0 | 0.00 | 0.09 | 0.09 | 76 | 1011.3 |
| 20260503224357 | 62 | 304 | 0.0 | 4.0 | 0.00 | 0.09 | 0.09 | 76 | 1011.4 |
| 20260503223925 | 62 | 304 | 0.0 | 4.0 | 0.00 | 0.09 | 0.09 | 76 | 1011.4 |
| 20260503223352 | 62 | 302 | 0.0 | 3.0 | 0.00 | 0.09 | 0.09 | 77 | 1011.5 |
| 20260503222918 | 62 | 290 | 0.0 | 3.0 | 0.00 | 0.09 | 0.09 | 75 | 1011.4 |
| 20260503222347 | 62 | 283 | 0.0 | 2.0 | 0.00 | 0.09 | 0.09 | 77 | 1011.5 |
| 20260503221855 | 62 | 283 | 0.0 | 2.0 | 0.00 | 0.09 | 0.09 | 75 | 1011.5 |
| 20260503221359 | 63 | 274 | 1.0 | 2.0 | 0.00 | 0.09 | 0.09 | 74 | 1011.6 |
| 20260503220847 | 63 | 232 | 0.0 | 2.0 | 0.00 | 0.09 | 0.09 | 75 | 1011.6 |
| 20260503220416 | 63 | 59 | 0.0 | 3.0 | 0.00 | 0.09 | 0.09 | 75 | 1011.7 |
| 20260503215847 | 63 | 116 | 1.0 | 3.0 | 0.00 | 0.09 | 0.09 | 75 | 1011.7 |
| 20260503215356 | 63 | 149 | 0.0 | 2.0 | 0.00 | 0.09 | 0.09 | 77 | 1011.8 |
| 20260503214902 | 63 | 19 | 0.0 | 2.0 | 0.00 | 0.09 | 0.09 | 76 | 1011.7 |
| 20260503214411 | 63 | 84 | 0.0 | 2.0 | 0.00 | 0.09 | 0.09 | 76 | 1011.8 |
| 20260503213857 | 63 | 30 | 0.0 | 0.0 | 0.00 | 0.09 | 0.09 | 77 | 1011.8 |
| 20260503213404 | 63 | 68 | 0.0 | 0.0 | 0.00 | 0.09 | 0.09 | 78 | 1011.8 |
| 20260503212349 | 63 | 78 | 0.0 | 0.0 | 0.00 | 0.09 | 0.09 | 80 | 1011.9 |
| 20260503211856 | 63 | 78 | 0.0 | 3.0 | 0.00 | 0.09 | 0.09 | 81 | 1012.0 |
| 20260503211403 | 62 | 78 | 0.0 | 3.0 | 0.00 | 0.09 | 0.09 | 81 | 1012.1 |
| 20260503210852 | 62 | 86 | 0.0 | 2.0 | 0.00 | 0.09 | 0.09 | 81 | 1012.0 |
| 20260503210400 | 62 | 105 | 0.0 | 2.0 | 0.00 | 0.09 | 0.09 | 82 | 1012.1 |
| 20260503205854 | 61 | 87 | 0.0 | 2.0 | 0.00 | 0.09 | 0.09 | 82 | 1012.1 |
| 20260503205401 | 61 | 82 | 0.0 | 2.0 | 0.00 | 0.09 | 0.09 | 83 | 1012.1 |
| 20260503204851 | 61 | 65 | 1.0 | 2.0 | 0.00 | 0.09 | 0.09 | 82 | 1012.1 |
| 20260503204358 | 61 | 105 | 0.0 | 2.0 | 0.00 | 0.09 | 0.09 | 82 | 1012.1 |
| 20260503203845 | 61 | 85 | 0.0 | 0.0 | 0.00 | 0.09 | 0.09 | 83 | 1012.1 |
| 20260503203349 | 61 | 93 | 0.0 | 1.0 | 0.00 | 0.09 | 0.09 | 83 | 1012.1 |
| 20260503202856 | 61 | 108 | 0.0 | 2.0 | 0.00 | 0.09 | 0.09 | 83 | 1012.1 |
| 20260503202403 | 61 | 63 | 1.0 | 2.0 | 0.00 | 0.09 | 0.09 | 83 | 1012.2 |
| 20260503201849 | 61 | 128 | 0.0 | 0.0 | 0.00 | 0.09 | 0.09 | 84 | 1012.2 |
| 20260503201359 | 61 | 129 | 0.0 | 0.0 | 0.00 | 0.09 | 0.09 | 84 | 1012.2 |
| 20260503200846 | 61 | 153 | 0.0 | 0.0 | 0.00 | 0.09 | 0.09 | 85 | 1012.3 |
| 20260503200356 | 61 | 226 | 0.0 | 2.0 | 0.00 | 0.09 | 0.09 | 86 | 1012.4 |
| 20260503195904 | 61 | 214 | 0.0 | 2.0 | 0.00 | 0.09 | 0.09 | 87 | 1012.4 |
| 20260503195354 | 61 | 96 | 0.0 | 4.0 | 0.00 | 0.09 | 0.09 | 86 | 1012.4 |
| 20260503194858 | 60 | 158 | 0.0 | 4.0 | 0.00 | 0.09 | 0.09 | 88 | 1012.5 |
| 20260503194347 | 60 | 93 | 1.0 | 4.0 | 0.00 | 0.09 | 0.09 | 87 | 1012.4 |